Weather History for KCWI - October, 2011

Change the Weather History Date:

Sunday, October 16, 2011

  Actual Average Record
Temperature  
Mean Temperature - -  
Max Temperature - 63 °F 85 °F (1950)
Min Temperature - 42 °F 27 °F (1952)
Moisture  
Dew Point -    
Average Humidity    
Maximum Humidity    
Minimum Humidity    
Precipitation  
Precipitation 0.00 in - - ()
Sea Level Pressure  
Sea Level Pressure 29.88 in    
Wind  
Wind Speed 7 mph (NW)    
Max Wind Speed 18 mph    
Max Gust Speed 25 mph    
Visibility 10 miles    
Events      
Averages and records for this station are not official NWS values.
T = Trace of Precipitation, MM = Missing Value Source: NWS Daily Summary

Daily Weather History Graph

Daily Weather History Graph

Search for Another Location

Airport or City:

Trip Planner

Search our weather history database for the weather conditions in past years. The results will help you decide how hot, cold, wet, or windy it might be!

Date:

Astronomy

Oct. 16, 2011 Rise Set
Actual Time 7:14 AM CDT 6:18 PM CDT
Civil Twilight 6:46 AM CDT 6:46 PM CDT
Nautical Twilight 6:14 AM CDT 7:19 PM CDT
Astronomical Twilight 5:41 AM CDT 7:51 PM CDT
Moon 9:00 PM CDT (10/16) 11:35 AM CDT (10/16)
Length of Visible Light 12h 00m
Length of Day
11h 04m
Waning Gibbous, 82% of the Moon is Illuminated
Oct 16
Waning Gibbous
Oct 19
Last Quarter
Oct 26
New
Nov 2
First Quarter
Nov 10
Full

Hourly Weather History & Observations

Time (CDT) Temp. Dew Point Humidity Pressure Visibility Wind Dir Wind Speed Gust Speed Precip Events Conditions
12:15 AM - - N/A% 29.86 in 10.0 mi SSE 5.8 mph - N/A   Clear
1:36 AM - - N/A% 29.83 in 10.0 mi SSE 4.6 mph - N/A   Clear
1:55 AM - - N/A% 29.82 in 10.0 mi SE 4.6 mph - N/A   Clear
2:35 AM - - N/A% 29.82 in 10.0 mi East 4.6 mph - N/A   Clear
2:55 AM - - N/A% 29.81 in 10.0 mi East 5.8 mph - N/A   Clear
3:16 AM - - N/A% 29.81 in 10.0 mi ENE 5.8 mph - N/A   Clear
4:15 AM - - N/A% 29.80 in 10.0 mi NE 6.9 mph - N/A   Clear
4:16 AM - - N/A% 29.80 in 10.0 mi NNE 6.9 mph - N/A   Clear
5:55 AM - - N/A% 29.82 in 10.0 mi NNE 6.9 mph - N/A   Mostly Cloudy
6:35 AM - - N/A% 29.78 in 10.0 mi ESE 8.1 mph - N/A   Overcast
7:15 AM - - N/A% 29.79 in 10.0 mi North 8.1 mph - N/A   Overcast
7:36 AM - - N/A% 29.81 in 10.0 mi North 8.1 mph - N/A   Overcast
8:16 AM - - N/A% 29.84 in 10.0 mi NE 6.9 mph - N/A   Overcast
8:55 AM - - N/A% 29.87 in 10.0 mi NNW 4.6 mph - N/A   Overcast
9:15 AM - - N/A% 29.88 in 10.0 mi WNW 3.5 mph - N/A   Overcast
9:35 AM - - N/A% 29.90 in 10.0 mi WNW 5.8 mph - N/A   Overcast
10:15 AM - - N/A% 29.88 in 10.0 mi WNW 4.6 mph - N/A   Overcast
10:55 AM - - N/A% 29.90 in 10.0 mi WNW 6.9 mph - N/A   Scattered Clouds
11:15 AM - - N/A% 29.91 in 10.0 mi NW 9.2 mph - N/A   Clear
11:35 AM - - N/A% 29.90 in 10.0 mi NW 11.5 mph - N/A   Clear
11:55 AM - - N/A% 29.91 in 10.0 mi NW 11.5 mph 17.3 mph N/A   Clear
12:55 PM - - N/A% 29.90 in 10.0 mi NW 11.5 mph 19.6 mph N/A   Clear
2:15 PM - - N/A% 29.89 in 10.0 mi NW 16.1 mph 23.0 mph N/A   Clear
2:35 PM - - N/A% 29.89 in 10.0 mi WNW 16.1 mph 21.9 mph N/A   Partly Cloudy
4:35 PM - - N/A% 29.90 in 10.0 mi WNW 12.7 mph 24.2 mph N/A   Scattered Clouds
4:56 PM - - N/A% 29.90 in 10.0 mi WNW 18.4 mph 24.2 mph N/A   Scattered Clouds
5:15 PM - - N/A% 29.89 in 10.0 mi NW 12.7 mph 25.3 mph N/A   Partly Cloudy
6:35 PM - - N/A% 29.90 in 10.0 mi WNW 8.1 mph - N/A   Clear
7:15 PM - - N/A% 29.91 in 10.0 mi WNW 6.9 mph - N/A   Clear
7:35 PM - - N/A% 29.91 in 10.0 mi West 3.5 mph - N/A   Clear
7:55 PM - - N/A% 29.92 in 10.0 mi WSW 6.9 mph - N/A   Clear
8:15 PM - - N/A% 29.92 in 10.0 mi West 8.1 mph - N/A   Clear
8:56 PM - - N/A% 29.93 in 10.0 mi West 8.1 mph - N/A   Clear
9:35 PM - - N/A% 29.94 in 10.0 mi West 8.1 mph - N/A   Clear
9:55 PM - - N/A% 29.94 in 10.0 mi West 9.2 mph - N/A   Clear
10:15 PM - - N/A% 29.94 in 10.0 mi West 6.9 mph - N/A   Clear
10:35 PM - - N/A% 29.95 in 10.0 mi West 8.1 mph - N/A   Clear
10:55 PM - - N/A% 29.94 in 10.0 mi West 8.1 mph - N/A   Clear
11:35 PM - - N/A% 29.95 in 10.0 mi WNW 5.8 mph - N/A   Clear
11:55 PM - - N/A% 29.95 in 10.0 mi WNW 5.8 mph - N/A   Clear